White Plains, CT

5:44 AM EST on November 15, 2019 (GMT -0500)
Westchester County

Weather History for KHPN - September, 2019

Change the Weather History Date:

Friday, September 13, 2019

  Actual Average Record
Temperature  
Mean Temperature 62 °F -  
Max Temperature 69 °F 72 °F 89 °F (2005)
Min Temperature 54 °F 56 °F 33 °F (1996)
Degree Days  
Heating Degree Days 4    
Growing Degree Days 12 (Base 50)    
Moisture  
Dew Point 49 °F    
Average Humidity 66    
Maximum Humidity 86    
Minimum Humidity 43    
Precipitation  
Precipitation 0.00 in - - ()
Sea Level Pressure  
Sea Level Pressure 30.42 in    
Wind  
Wind Speed 7 mph ()    
Max Wind Speed 15 mph    
Max Gust Speed 22 mph    
Visibility 10.0 miles    
Events      
Averages and records for this station are not official NWS values.
T = Trace of Precipitation, MM = Missing Value Source: Averaged Metar Reports

Daily Weather History Graph

Daily Weather History Graph

Search for Another Location

Airport or City:

Astronomy

Sep. 13, 2019 Rise Set
Actual Time 6:33 AM EDT 7:07 PM EDT
Civil Twilight 6:05 AM EDT 7:35 PM EDT
Nautical Twilight 5:32 AM EDT 8:08 PM EDT
Astronomical Twilight 4:58 AM EDT 8:41 PM EDT
Moon 7:20 PM EDT (9/13) 5:46 AM EDT (9/13)
Length of Visible Light 13h 30m
Length of Day
12h 34m
Full, 100% of the Moon is Illuminated
Sep 13
Full
Sep 14
Full
Sep 21
Last Quarter
Sep 28
New
Oct 5
First Quarter

Hourly Weather History & Observations

Time (EDT) Temp. Dew Point Humidity Pressure Visibility Wind Dir Wind Speed Gust Speed Precip Events Conditions
12:56 AM 57.9 °F 52.0 °F 81% 30.30 in 10.0 mi NE 6.9 mph - N/A   Partly Cloudy
1:56 AM 57.0 °F 52.0 °F 83% 30.32 in 10.0 mi NNE 6.9 mph - N/A   Partly Cloudy
2:56 AM 55.9 °F 51.1 °F 84% 30.32 in 10.0 mi NNE 5.8 mph - N/A   Partly Cloudy
3:56 AM 55.0 °F 48.9 °F 80% 30.33 in 10.0 mi NNE 4.6 mph - N/A   Partly Cloudy
4:56 AM 55.0 °F 48.9 °F 80% 30.35 in 10.0 mi NNE 5.8 mph - N/A   Partly Cloudy
5:56 AM 54.0 °F 50.0 °F 86% 30.38 in 10.0 mi North 5.8 mph - N/A   Partly Cloudy
6:56 AM 54.0 °F 50.0 °F 86% 30.40 in 10.0 mi NNE 4.6 mph - N/A   Partly Cloudy
7:56 AM 57.9 °F 50.0 °F 75% 30.42 in 10.0 mi NE 5.8 mph - N/A   Partly Cloudy
8:56 AM 61.0 °F 51.1 °F 70% 30.45 in 10.0 mi East 6.9 mph - N/A   Partly Cloudy
9:56 AM 63.0 °F 48.9 °F 60% 30.47 in 10.0 mi East 9.2 mph 17.3 mph N/A   Partly Cloudy
10:56 AM 64.9 °F 48.9 °F 56% 30.47 in 10.0 mi East 11.5 mph 17.3 mph N/A   Scattered Clouds
11:56 AM 64.0 °F 48.9 °F 58% 30.47 in 10.0 mi East 13.8 mph 21.9 mph N/A   Scattered Clouds
12:56 PM 68.0 °F 45.0 °F 43% 30.47 in 10.0 mi East 10.4 mph 19.6 mph N/A   Scattered Clouds
1:56 PM 68.0 °F 46.9 °F 47% 30.46 in 10.0 mi East 13.8 mph - N/A   Scattered Clouds
2:56 PM 69.1 °F 48.0 °F 47% 30.45 in 10.0 mi East 9.2 mph 19.6 mph N/A   Scattered Clouds
3:56 PM 66.9 °F 46.9 °F 49% 30.45 in 10.0 mi ESE 12.7 mph - N/A   Scattered Clouds
4:56 PM 66.0 °F 48.0 °F 52% 30.45 in 10.0 mi ESE 15.0 mph - N/A   Mostly Cloudy
5:56 PM 64.9 °F 48.9 °F 56% 30.45 in 10.0 mi SE 10.4 mph - N/A   Scattered Clouds
6:56 PM 62.1 °F 48.0 °F 60% 30.45 in 10.0 mi SSE 9.2 mph - N/A   Scattered Clouds
7:56 PM 60.1 °F 46.0 °F 60% 30.43 in 10.0 mi SSE 13.8 mph - N/A   Clear
8:56 PM 59.0 °F 46.9 °F 64% 30.44 in 10.0 mi SE 8.1 mph - N/A   Clear
9:56 PM 57.9 °F 46.9 °F 67% 30.44 in 10.0 mi SE 8.1 mph - N/A   Clear
10:56 PM 57.9 °F 46.0 °F 65% 30.43 in 10.0 mi SE 8.1 mph - N/A   Clear
11:56 PM 55.9 °F 48.0 °F 75% 30.42 in 10.0 mi SE 5.8 mph - N/A   Scattered Clouds